[[{"header":{"parameterUnit":"m.s-1","parameterCategory":1,"la1":30.2991,"la2":30.254,"lo1":-89.0895,"lo2":-89.0444,"dy":0.0017,"dx":0.0017,"nx":28,"ny":28,"refTime":"2025-02-09T03:00:00:Z","depth":0,"parameterNumber":2,"parameterNumberName":"U-component_of_WINDS"},"data":[0,0,0,0,0,0,0,0,0,0,0,0,0,0,0,0,0,0,0,0,0,0,0,0,0,0,0,0,0,0,0,0,0,0,0,0,0,0,0,0,0,0,0,0,0,0,0,0,0,0,0,0,0,0,0,0,0,0,-0.1247,-0.1246,0,-0.1189,-0.1188,-0.1188,-0.1159,-0.1159,-0.1159,-0.1159,-0.1097,-0.1096,-0.1094,0,0,0,0,0,0,0,0,0,0,0,0,0,-0.1332,-0.133,-0.1247,-0.1246,-0.1246,-0.1189,-0.1188,-0.1187,-0.1159,-0.1159,-0.1159,-0.1159,-0.1098,-0.1096,-0.1094,0,0,0,0,0,0,0,0,0,0,0,0,0,-0.1286,-0.133,-0.1247,-0.1225,-0.1222,-0.1189,-0.1188,-0.1187,-0.1159,-0.1159,-0.1159,-0.1159,-0.1099,-0.1096,-0.1094,-0.1078,0,0,-0.1086,-0.1085,0,0,0,0,0,0,0,0,-0.1289,-0.1283,-0.1229,-0.1226,-0.1223,-0.1181,-0.1195,-0.1151,-0.1159,-0.1183,-0.1159,-0.1159,-0.1125,-0.112,-0.1109,-0.1075,-0.1073,-0.1086,-0.1084,-0.1083,-0.1083,0,0,0,0,0,0,0,-0.1292,-0.1286,-0.1224,-0.1228,-0.1225,-0.1217,-0.1211,-0.1187,-0.1155,-0.1181,-0.1179,-0.1172,-0.1124,-0.1112,-0.1108,-0.1072,-0.1086,-0.1084,-0.1082,-0.1081,-0.1022,-0.1022,0,0,0,0,0,0,-0.1299,-0.1288,-0.1226,-0.1222,-0.1257,-0.1215,-0.1208,-0.1195,-0.1155,-0.1149,-0.1172,-0.1171,-0.1116,-0.1111,-0.1106,-0.1085,-0.1083,-0.1081,-0.108,-0.1022,-0.1022,-0.1022,0,0,0,0,0,0,-0.1301,-0.1294,-0.1228,-0.1255,-0.1246,-0.1214,-0.1199,-0.1194,-0.1182,-0.1148,-0.1142,-0.1166,-0.1116,-0.1109,-0.1085,-0.1082,-0.108,-0.1078,-0.1022,-0.1022,-0.1022,-0.1043,0,0,0,0,0,0,-0.1304,-0.1295,-0.1289,-0.1255,-0.1245,-0.121,-0.1199,-0.1192,-0.1178,-0.1176,-0.1141,-0.1135,-0.1115,-0.1089,-0.1083,-0.1079,-0.1076,-0.1022,-0.1022,-0.1022,-0.1042,-0.1044,-0.1045,0,0,0,0,0,-0.1307,-0.1297,-0.1289,-0.1281,-0.1237,-0.1209,-0.1203,-0.1181,-0.1178,-0.1171,-0.115,-0.1137,-0.1084,-0.1087,-0.108,-0.1075,-0.1022,-0.1022,-0.1022,-0.1042,-0.1043,-0.1045,0,0,0,0,0,0,-0.133,-0.1292,-0.1282,-0.1261,-0.1239,-0.1205,-0.1196,-0.1183,-0.1161,-0.116,-0.1133,-0.1125,-0.1104,-0.1087,-0.1091,-0.1058,-0.1052,-0.105,-0.1069,-0.1071,-0.1072,-0.1076,-0.1074,0,0,0,0,0,-0.1333,-0.1315,-0.1282,-0.1266,-0.1256,-0.1228,-0.1215,-0.12,-0.1176,-0.1166,-0.1143,-0.1119,-0.1097,-0.1083,-0.1061,-0.104,-0.1032,-0.1033,-0.1034,-0.1035,-0.1034,-0.1022,-0.1022,-0.1021,-0.1021,-0.1021,0,0,-0.1338,-0.1315,-0.1305,-0.127,-0.1251,-0.1233,-0.122,-0.1201,-0.1186,-0.1163,-0.1139,-0.1121,-0.1093,-0.1071,-0.106,-0.1056,-0.1032,-0.1035,-0.1036,-0.1034,-0.1021,-0.1022,-0.1022,-0.1021,-0.1021,-0.1021,0,0,-0.1338,-0.1319,-0.1304,-0.1285,-0.1257,-0.1239,-0.1235,-0.1203,-0.1191,-0.1167,-0.1149,-0.1131,-0.1094,-0.1074,-0.106,-0.1053,-0.104,-0.1047,-0.1052,-0.1041,-0.1041,-0.1041,-0.1038,-0.1038,-0.1046,-0.1046,-0.1046,0,-0.1348,-0.132,-0.1298,-0.1279,-0.1265,-0.1243,-0.1228,-0.121,-0.1176,-0.1166,-0.1163,-0.1116,-0.1095,-0.1068,-0.1067,-0.1056,-0.105,-0.105,-0.1043,-0.1042,-0.1042,-0.1039,-0.1039,-0.1047,-0.1047,-0.1047,-0.1047,0,-0.1333,-0.1314,-0.1305,-0.1274,-0.1258,-0.1241,-0.1216,-0.1202,-0.1189,-0.1171,-0.1147,-0.1122,-0.1094,-0.1087,-0.1073,-0.1058,-0.1056,-0.1048,-0.1042,-0.1044,-0.104,-0.1039,-0.1048,-0.1048,-0.1048,-0.1047,0,0,-0.1346,-0.1303,-0.13,-0.1285,-0.1253,-0.1237,-0.1219,-0.1193,-0.1182,-0.116,-0.1144,-0.1113,-0.1106,-0.1089,-0.1073,-0.1063,-0.1059,-0.1056,-0.1055,-0.1057,-0.1041,-0.1047,-0.1046,-0.1051,-0.1051,-0.105,-0.1043,0,-0.1341,-0.1309,-0.1288,-0.1264,-0.1246,-0.1226,-0.121,-0.1188,-0.1171,-0.1153,-0.1134,-0.1112,-0.1104,-0.1094,-0.1083,-0.1062,-0.1056,-0.1062,-0.1035,-0.1034,-0.1042,-0.1045,-0.1051,-0.1045,-0.1042,-0.1042,-0.1042,0,-0.1331,-0.131,-0.1284,-0.1254,-0.1245,-0.1232,-0.1207,-0.1189,-0.1164,-0.1152,-0.1135,-0.1119,-0.1098,-0.1094,-0.1066,-0.1071,-0.1059,-0.1047,-0.1046,-0.1042,-0.1038,-0.104,-0.1043,-0.1042,-0.104,-0.104,-0.104,0,-0.1342,-0.1307,-0.1287,-0.1275,-0.124,-0.1231,-0.1216,-0.1191,-0.1176,-0.1154,-0.1145,-0.112,-0.1107,-0.1088,-0.1066,-0.1065,-0.1039,-0.1033,-0.1029,-0.1029,-0.1024,-0.1024,-0.1024,-0.1017,-0.1017,-0.1017,-0.1017,0,-0.1339,-0.1324,-0.1292,-0.1279,-0.1262,-0.1239,-0.1222,-0.1205,-0.1183,-0.1166,-0.1147,-0.1132,-0.1104,-0.1085,-0.1068,-0.1047,-0.1041,-0.1031,-0.1026,-0.1032,-0.1033,-0.1023,-0.1023,-0.1016,-0.1016,-0.1016,-0.1017,0,-0.1348,-0.1327,-0.1303,-0.1272,-0.1264,-0.1252,-0.1225,-0.1212,-0.1195,-0.1174,-0.1168,-0.114,-0.1117,-0.1093,-0.1062,-0.105,-0.103,-0.1024,-0.1038,-0.1036,-0.1032,-0.1033,-0.1025,-0.1023,-0.1018,-0.1018,-0.1018,0,-0.1348,-0.1336,-0.1303,-0.1291,-0.1277,-0.1258,-0.1243,-0.122,-0.1206,-0.1177,-0.1167,-0.1143,-0.1123,-0.1087,-0.1063,-0.1039,-0.1032,-0.1031,-0.1028,-0.1035,-0.1032,-0.1033,-0.1031,-0.1032,-0.1032,-0.1032,-0.1032,0,-0.1348,-0.1338,-0.1319,-0.1295,-0.1279,-0.1259,-0.1239,-0.123,-0.1203,-0.1188,-0.1165,-0.1149,-0.1117,-0.1094,-0.1067,-0.105,-0.1037,-0.1034,-0.1031,-0.1037,-0.1046,-0.1041,-0.1041,-0.1034,-0.1034,-0.1034,-0.1033,-0.1033,-0.1352,-0.1341,-0.1316,-0.1295,-0.1278,-0.1259,-0.1246,-0.1227,-0.1207,-0.118,-0.1168,-0.1144,-0.112,-0.1083,-0.1067,-0.1048,-0.1044,-0.104,-0.1039,-0.1039,-0.104,-0.105,-0.1043,-0.1043,-0.1043,-0.1043,-0.1043,0,-0.1352,-0.1335,-0.1316,-0.1289,-0.1272,-0.1262,-0.1239,-0.1225,-0.1205,-0.1184,-0.1164,-0.1138,-0.1115,-0.109,-0.1065,-0.1055,-0.1048,-0.1049,-0.1049,-0.1046,-0.1045,-0.105,-0.1055,-0.1055,-0.1055,-0.1055,-0.1055,-0.1055,-0.1349,-0.1329,-0.1316,-0.1288,-0.1271,-0.1249,-0.1236,-0.1219,-0.1202,-0.1173,-0.1154,-0.1139,-0.1116,-0.1089,-0.1068,-0.1061,-0.1052,-0.1055,-0.1047,-0.1047,-0.1046,-0.1045,-0.1049,-0.1054,-0.1054,-0.1048,-0.1048,-0.1048]},{"header":{"parameterUnit":"m.s-1","parameterCategory":1,"la1":30.2991,"la2":30.254,"lo1":-89.0895,"lo2":-89.0444,"dy":0.0017,"dx":0.0017,"nx":28,"ny":28,"refTime":"2025-02-09T03:00:00:Z","depth":0,"parameterNumber":3,"parameterNumberName":"V-component_of_WINDS"},"data":[0,0,0,0,0,0,0,0,0,0,0,0,0,0,0,0,0,0,0,0,0,0,0,0,0,0,0,0,0,0,0,0,0,0,0,0,0,0,0,0,0,0,0,0,0,0,0,0,0,0,0,0,0,0,0,0,0,0,1.0511,1.0512,0,1.0615,1.0617,1.0618,1.0647,1.0646,1.0645,1.0645,1.0751,1.0754,1.0757,0,0,0,0,0,0,0,0,0,0,0,0,0,1.0335,1.0338,1.051,1.0512,1.0513,1.0615,1.0617,1.0618,1.0647,1.0646,1.0645,1.0644,1.0749,1.0753,1.0758,0,0,0,0,0,0,0,0,0,0,0,0,0,1.0422,1.0339,1.051,1.054,1.0543,1.0615,1.0617,1.0619,1.0647,1.0646,1.0645,1.0644,1.0748,1.0753,1.0758,1.0808,0,0,1.0774,1.0776,0,0,0,0,0,0,0,0,1.0417,1.0429,1.0534,1.0538,1.0542,1.0617,1.0594,1.0682,1.0647,1.0607,1.0645,1.0644,1.0707,1.0715,1.0737,1.0812,1.0817,1.0774,1.0777,1.0779,1.0781,0,0,0,0,0,0,0,1.0411,1.0424,1.0552,1.0535,1.054,1.0548,1.0559,1.061,1.0661,1.0611,1.0613,1.0625,1.0709,1.0732,1.074,1.0819,1.0774,1.0778,1.0782,1.0784,1.0943,1.0945,0,0,0,0,0,0,1.04,1.0419,1.0549,1.0555,1.0476,1.0552,1.0564,1.0594,1.066,1.067,1.0626,1.0626,1.0724,1.0734,1.0743,1.0808,1.0779,1.0784,1.0787,1.0942,1.0944,1.0945,0,0,0,0,0,0,1.0396,1.0412,1.0544,1.0488,1.0505,1.0556,1.0588,1.0596,1.062,1.0672,1.0681,1.064,1.0723,1.0736,1.0792,1.0812,1.0786,1.0791,1.0941,1.0943,1.0944,1.0937,0,0,0,0,0,0,1.0391,1.041,1.0429,1.0488,1.0508,1.0591,1.059,1.0599,1.0628,1.063,1.0688,1.0696,1.0724,1.0785,1.0797,1.0819,1.0795,1.0939,1.0942,1.0944,1.0935,1.0938,1.094,0,0,0,0,0,1.0385,1.0422,1.043,1.0445,1.0533,1.0593,1.0604,1.0635,1.063,1.065,1.0684,1.0695,1.0808,1.079,1.0805,1.0828,1.0938,1.0941,1.0944,1.0934,1.0938,1.094,0,0,0,0,0,0,1.0363,1.043,1.044,1.0497,1.0539,1.0597,1.0623,1.0637,1.0681,1.068,1.0716,1.0729,1.0783,1.0811,1.079,1.0881,1.0873,1.0879,1.0861,1.0865,1.0867,1.086,1.0799,0,0,0,0,0,1.0364,1.0407,1.0463,1.0508,1.0529,1.0573,1.0599,1.062,1.0665,1.0682,1.072,1.0763,1.0809,1.0838,1.0882,1.0939,1.0953,1.0962,1.0965,1.0967,1.0972,1.1007,1.1012,1.0954,1.0954,1.0954,0,0,1.0368,1.0411,1.0435,1.0505,1.054,1.0584,1.0587,1.0633,1.0666,1.0689,1.0746,1.0775,1.0825,1.0882,1.091,1.0907,1.0991,1.097,1.0971,1.0975,1.101,1.1016,1.1021,1.0956,1.0955,1.0955,0,0,1.0399,1.0434,1.0477,1.0513,1.0566,1.0595,1.0605,1.0662,1.0683,1.074,1.0759,1.0799,1.0876,1.0912,1.094,1.0987,1.0999,1.1,1.1013,1.1047,1.1052,1.1056,1.1075,1.1081,1.1004,1.1004,1.1004,0,1.0397,1.0465,1.0497,1.0543,1.0574,1.0598,1.0642,1.0675,1.074,1.0761,1.0757,1.0856,1.0891,1.0959,1.0971,1.0992,1.1006,1.0994,1.1048,1.1053,1.1058,1.1076,1.1083,1.1004,1.1004,1.1004,1.1004,0,1.0461,1.0508,1.0536,1.06,1.0634,1.0678,1.0718,1.0749,1.0766,1.0796,1.0855,1.0898,1.0954,1.0971,1.0987,1.1042,1.1039,1.1041,1.1035,1.1063,1.1081,1.1088,1.1004,1.1004,1.1004,1.1004,0,0,1.048,1.0563,1.0573,1.0604,1.0666,1.0702,1.0748,1.0803,1.083,1.0874,1.0915,1.0981,1.0984,1.1016,1.1038,1.1067,1.1105,1.1066,1.1068,1.1074,1.117,1.117,1.1178,1.1113,1.1114,1.1115,1.1167,0,1.0521,1.0605,1.0637,1.0706,1.0751,1.0775,1.0816,1.0858,1.0888,1.093,1.0962,1.1009,1.1008,1.1029,1.1058,1.1094,1.1125,1.109,1.1153,1.1155,1.1142,1.1187,1.1186,1.1233,1.1174,1.1175,1.1176,0,1.0579,1.0626,1.07,1.0759,1.0779,1.0815,1.0869,1.0909,1.0958,1.0978,1.1015,1.1035,1.1085,1.1074,1.1145,1.1121,1.1149,1.117,1.1173,1.1181,1.1168,1.1199,1.1248,1.1256,1.1187,1.1186,1.1186,0,1.0589,1.067,1.0726,1.0751,1.082,1.0846,1.0875,1.0924,1.0956,1.1003,1.1025,1.1076,1.1105,1.1145,1.1179,1.1168,1.1249,1.124,1.1267,1.1267,1.1285,1.1284,1.1341,1.1298,1.1298,1.1298,1.1298,0,1.0632,1.0677,1.0732,1.0767,1.0819,1.0855,1.0905,1.0936,1.098,1.1022,1.1044,1.1083,1.1125,1.1169,1.1195,1.1252,1.1264,1.1282,1.1289,1.1282,1.128,1.1302,1.13,1.13,1.1299,1.1299,1.1299,0,1.0652,1.0691,1.0754,1.0815,1.0831,1.0867,1.092,1.0955,1.0985,1.1038,1.1052,1.11,1.1154,1.1192,1.126,1.1278,1.134,1.1345,1.1324,1.1328,1.1355,1.1353,1.1431,1.1444,1.1389,1.139,1.139,0,1.0678,1.0714,1.0779,1.081,1.084,1.0888,1.0921,1.0958,1.0992,1.1052,1.1081,1.1136,1.1183,1.1267,1.1309,1.1362,1.137,1.1394,1.1378,1.1371,1.1374,1.1373,1.1378,1.1397,1.1397,1.1397,1.1398,0,1.0721,1.0739,1.0786,1.0841,1.0881,1.0926,1.0971,1.0994,1.1039,1.1076,1.1132,1.1168,1.1239,1.1295,1.1353,1.1384,1.1399,1.1402,1.1412,1.1406,1.1393,1.1403,1.1333,1.14,1.14,1.14,1.14,1.14,1.0747,1.0781,1.0834,1.0886,1.0924,1.0967,1.1004,1.104,1.1087,1.1149,1.1167,1.1226,1.1277,1.1356,1.1388,1.1435,1.1434,1.1447,1.1451,1.1454,1.1456,1.1384,1.1445,1.1445,1.1445,1.1445,1.1445,0,1.0793,1.0829,1.0877,1.094,1.0983,1.0993,1.1044,1.1079,1.1131,1.1177,1.1223,1.1289,1.1343,1.1389,1.1446,1.1475,1.1484,1.1489,1.1489,1.1496,1.1452,1.144,1.1481,1.1481,1.1481,1.1481,1.1481,1.1481,1.0823,1.0882,1.0907,1.0986,1.1021,1.1079,1.1108,1.1148,1.1185,1.1258,1.1304,1.1334,1.1381,1.1442,1.1493,1.1505,1.1526,1.153,1.1544,1.1503,1.1499,1.1495,1.1483,1.1534,1.1534,1.1585,1.1585,1.1586]}]]